Location: Deurze
(52.9838°N, 6.6090°E)
Time: 18:21:00
(UTC+00:00)

SJ 16-02 - Pass Details

Date: 11 March 2026
Orbit: 582 x 593 km, 75.0° (Epoch: 20 April)

Event Time Altitude Azimuth Distance (km) Brightness Sun altitude
Exits shadow 21:15:43 15° 8° (N) 1,620 3.8 -31.9°
Drops below altitude 10° 21:16:35 10° 13° (NNE) 1,939 4.2 -32.0°
Sets 21:18:56 0° 21° (NNE) 2,846 5.1 -32.2°
